Time,TemperatureF,DewpointF,PressureIn,WindDirection,WindDirectionDegrees,WindSpeedMPH,WindSpeedGustMPH,Humidity,HourlyPrecipIn,Conditions,Clouds,dailyrainin,SoftwareType,DateUTC
2013-04-14 00:02:00,45.0,18.0,29.82,SSW,197,6.0,9.0,34,0.00,,,0.00,,2013-04-14 04:02:00,
2013-04-14 00:12:00,45.0,18.0,29.82,SSW,197,6.0,9.0,34,0.00,,,0.00,,2013-04-14 04:12:00,
2013-04-14 00:22:00,45.0,18.0,29.81,South,173,5.0,16.0,34,0.00,,,0.00,,2013-04-14 04:22:00,
2013-04-14 00:32:00,46.0,19.0,29.81,West,270,2.0,5.0,33,0.00,,,0.00,,2013-04-14 04:32:00,
2013-04-14 00:42:00,46.0,19.0,29.81,West,270,2.0,5.0,33,0.00,,,0.00,,2013-04-14 04:42:00,
2013-04-14 00:52:00,45.0,18.0,29.82,SE,133,3.0,6.0,33,0.00,,,0.00,,2013-04-14 04:52:00,
2013-04-14 01:02:00,45.0,18.0,29.82,SSE,166,5.0,5.0,33,0.00,,,0.00,,2013-04-14 05:02:00,
2013-04-14 01:11:00,45.0,18.0,29.82,SSE,166,5.0,5.0,33,0.00,,,0.00,,2013-04-14 05:11:00,
2013-04-14 01:22:00,45.0,18.0,29.82,WSW,251,8.0,15.0,33,0.00,,,0.00,,2013-04-14 05:22:00,
2013-04-14 01:32:00,45.0,19.0,29.82,SSE,160,3.0,3.0,35,0.00,,,0.00,,2013-04-14 05:32:00,
2013-04-14 01:42:00,45.0,19.0,29.82,SSE,160,3.0,3.0,35,0.00,,,0.00,,2013-04-14 05:42:00,
2013-04-14 01:52:00,45.0,19.0,29.83,ENE,67,2.0,3.0,35,0.00,,,0.00,,2013-04-14 05:52:00,
2013-04-14 02:01:00,44.0,19.0,29.83,WSW,256,3.0,6.0,37,0.00,,,0.00,,2013-04-14 06:01:00,
2013-04-14 02:11:00,44.0,19.0,29.83,WSW,256,3.0,6.0,37,0.00,,,0.00,,2013-04-14 06:11:00,
2013-04-14 02:21:00,43.0,26.0,29.84,ENE,57,6.0,12.0,50,0.00,,,0.00,,2013-04-14 06:21:00,
2013-04-14 02:32:00,42.0,22.0,29.83,SW,217,3.0,3.0,44,0.00,,,0.00,,2013-04-14 06:32:00,
2013-04-14 02:42:00,42.0,22.0,29.83,SW,217,3.0,3.0,44,0.00,,,0.00,,2013-04-14 06:42:00,
2013-04-14 02:51:00,42.0,22.0,29.84,WSW,240,6.0,9.0,45,0.00,,,0.00,,2013-04-14 06:51:00,
2013-04-14 03:01:00,42.0,22.0,29.83,ENE,66,3.0,6.0,45,0.00,,,0.00,,2013-04-14 07:01:00,
2013-04-14 03:11:00,42.0,22.0,29.83,ENE,66,3.0,6.0,45,0.00,,,0.00,,2013-04-14 07:11:00,
2013-04-14 03:21:00,42.0,22.0,29.81,SE,124,5.0,5.0,44,0.00,,,0.00,,2013-04-14 07:21:00,
2013-04-14 03:32:00,42.0,21.0,29.82,East,88,3.0,5.0,42,0.00,,,0.00,,2013-04-14 07:32:00,
2013-04-14 03:41:00,42.0,21.0,29.82,East,88,3.0,5.0,42,0.00,,,0.00,,2013-04-14 07:41:00,
2013-04-14 03:52:00,42.0,21.0,29.81,SE,146,7.0,12.0,42,0.00,,,0.00,,2013-04-14 07:52:00,
2013-04-14 04:01:00,42.0,19.0,29.81,SSE,166,2.0,6.0,39,0.00,,,0.00,,2013-04-14 08:01:00,
2013-04-14 04:11:00,42.0,19.0,29.81,SSE,166,2.0,6.0,39,0.00,,,0.00,,2013-04-14 08:11:00,
2013-04-14 04:21:00,42.0,19.0,29.82,SW,236,7.0,32.0,39,0.00,,,0.00,,2013-04-14 08:21:00,
2013-04-14 04:32:00,42.0,18.0,29.81,WNW,292,5.0,12.0,38,0.00,,,0.00,,2013-04-14 08:32:00,
2013-04-14 04:42:00,42.0,18.0,29.81,WNW,292,5.0,12.0,38,0.00,,,0.00,,2013-04-14 08:42:00,
2013-04-14 04:51:00,42.0,19.0,29.81,South,189,2.0,5.0,39,0.00,,,0.00,,2013-04-14 08:51:00,
2013-04-14 05:02:00,42.0,18.0,29.81,West,269,8.0,10.0,38,0.00,,,0.00,,2013-04-14 09:02:00,
2013-04-14 05:11:00,42.0,18.0,29.81,West,269,8.0,10.0,38,0.00,,,0.00,,2013-04-14 09:11:00,
2013-04-14 05:22:00,41.0,18.0,29.81,WSW,252,6.0,8.0,39,0.00,,,0.00,,2013-04-14 09:22:00,
2013-04-14 05:32:00,41.0,18.0,29.80,SSW,194,1.0,3.0,39,0.00,,,0.00,,2013-04-14 09:32:00,
2013-04-14 05:42:00,41.0,18.0,29.80,SSW,194,1.0,3.0,39,0.00,,,0.00,,2013-04-14 09:42:00,
2013-04-14 05:53:00,41.0,19.0,29.80,WNW,301,1.0,0.0,40,0.00,,,0.00,,2013-04-14 09:53:00,
2013-04-14 06:02:00,40.0,19.0,29.80,ESE,105,2.0,3.0,43,0.00,,,0.00,,2013-04-14 10:02:00,
2013-04-14 06:12:00,40.0,19.0,29.80,ESE,105,2.0,3.0,43,0.00,,,0.00,,2013-04-14 10:12:00,
2013-04-14 06:22:00,40.0,21.0,29.80,NNW,327,2.0,7.0,47,0.00,,,0.00,,2013-04-14 10:22:00,
2013-04-14 06:32:00,40.0,22.0,29.80,South,181,2.0,5.0,48,0.00,,,0.00,,2013-04-14 10:32:00,
2013-04-14 06:42:00,40.0,22.0,29.80,South,181,2.0,5.0,48,0.00,,,0.00,,2013-04-14 10:42:00,
2013-04-14 06:52:00,40.0,23.0,29.80,NW,316,2.0,3.0,51,0.00,,,0.00,,2013-04-14 10:52:00,
2013-04-14 07:02:00,39.0,23.0,29.80,SSE,162,3.0,5.0,53,0.00,,,0.00,,2013-04-14 11:02:00,
2013-04-14 07:11:00,39.0,23.0,29.80,SSE,162,3.0,5.0,53,0.00,,,0.00,,2013-04-14 11:11:00,
2013-04-14 07:22:00,39.0,25.0,29.80,SW,221,9.0,17.0,56,0.00,,,0.00,,2013-04-14 11:22:00,
2013-04-14 07:32:00,39.0,26.0,29.80,ESE,121,6.0,6.0,60,0.00,,,0.00,,2013-04-14 11:32:00,
2013-04-14 07:42:00,39.0,26.0,29.80,ESE,121,6.0,6.0,60,0.00,,,0.00,,2013-04-14 11:42:00,
2013-04-14 07:52:00,38.0,27.0,29.79,ESE,112,8.0,12.0,64,0.00,,,0.00,,2013-04-14 11:52:00,
2013-04-14 08:02:00,37.0,27.0,29.80,ESE,115,1.0,3.0,67,0.00,,,0.00,,2013-04-14 12:02:00,
2013-04-14 08:11:00,37.0,27.0,29.80,ESE,115,1.0,3.0,67,0.00,,,0.00,,2013-04-14 12:11:00,
2013-04-14 08:21:00,36.0,28.0,29.80,ESE,122,0.0,0.0,71,0.00,,,0.00,,2013-04-14 12:21:00,
2013-04-14 08:32:00,36.0,28.0,29.80,ESE,122,0.0,0.0,73,0.00,,,0.00,,2013-04-14 12:32:00,
2013-04-14 08:51:00,35.0,28.0,29.80,ESE,122,1.0,2.0,75,0.00,,,0.00,,2013-04-14 12:51:00,
2013-04-14 09:02:00,34.0,30.0,29.81,ESE,122,0.0,0.0,84,0.00,,,0.00,,2013-04-14 13:02:00,
2013-04-14 09:11:00,34.0,30.0,29.81,ESE,122,0.0,0.0,84,0.00,,,0.00,,2013-04-14 13:11:00,
2013-04-14 09:22:00,34.0,30.0,29.81,ESE,122,0.0,0.0,84,0.00,,,0.00,,2013-04-14 13:22:00,
2013-04-14 09:32:00,34.0,30.0,29.81,ESE,121,0.0,0.0,85,0.00,,,0.00,,2013-04-14 13:32:00,
2013-04-14 09:42:00,34.0,30.0,29.81,ESE,121,0.0,0.0,85,0.00,,,0.00,,2013-04-14 13:42:00,
2013-04-14 09:52:00,34.0,30.0,29.82,ESE,121,0.0,0.0,85,0.00,,,0.00,,2013-04-14 13:52:00,
2013-04-14 10:02:00,33.0,29.0,29.83,NNE,14,2.0,8.0,85,0.00,,,0.00,,2013-04-14 14:02:00,
2013-04-14 10:11:00,32.0,28.0,29.84,NW,321,2.0,5.0,85,0.00,,,0.00,,2013-04-14 14:11:00,
2013-04-14 10:21:00,32.0,28.0,29.84,NW,321,2.0,5.0,85,0.00,,,0.00,,2013-04-14 14:21:00,
2013-04-14 10:32:00,31.0,26.0,29.84,ESE,108,2.0,3.0,81,0.00,,,0.00,,2013-04-14 14:32:00,
2013-04-14 10:41:00,31.0,26.0,29.84,ESE,108,2.0,3.0,81,0.00,,,0.00,,2013-04-14 14:41:00,
2013-04-14 10:52:00,32.0,27.0,29.84,NE,49,0.0,2.0,82,0.00,,,0.00,,2013-04-14 14:52:00,
2013-04-14 11:02:00,33.0,28.0,29.84,North,2,0.0,1.0,82,0.00,,,0.00,,2013-04-14 15:02:00,
2013-04-14 11:12:00,33.0,28.0,29.84,North,2,0.0,1.0,82,0.00,,,0.00,,2013-04-14 15:12:00,
2013-04-14 11:22:00,33.0,28.0,29.85,NNE,20,0.0,2.0,83,0.00,,,0.00,,2013-04-14 15:22:00,
2013-04-14 11:33:00,33.0,28.0,29.85,NNE,18,0.0,5.0,83,0.00,,,0.00,,2013-04-14 15:33:00,
2013-04-14 11:42:00,33.0,28.0,29.85,NNE,18,0.0,5.0,83,0.00,,,0.00,,2013-04-14 15:42:00,
2013-04-14 11:52:00,34.0,29.0,29.85,NNE,18,1.0,3.0,81,0.00,,,0.00,,2013-04-14 15:52:00,
2013-04-14 12:03:00,33.0,28.0,29.85,NE,47,2.0,3.0,81,0.01,,,0.01,,2013-04-14 16:03:00,
2013-04-14 12:12:00,33.0,28.0,29.85,NE,47,2.0,3.0,81,0.01,,,0.01,,2013-04-14 16:12:00,
2013-04-14 12:22:00,34.0,29.0,29.86,NNE,15,1.0,2.0,81,0.01,,,0.01,,2013-04-14 16:22:00,
2013-04-14 12:32:00,38.0,31.0,29.86,East,87,0.0,1.0,77,0.03,,,0.03,,2013-04-14 16:32:00,
2013-04-14 12:42:00,38.0,31.0,29.86,East,87,0.0,1.0,77,0.03,,,0.03,,2013-04-14 16:42:00,
2013-04-14 12:52:00,40.0,31.0,29.87,NNE,29,0.0,0.0,69,0.04,,,0.04,,2013-04-14 16:52:00,
2013-04-14 13:02:00,41.0,31.0,29.87,NNE,12,0.0,0.0,66,0.05,,,0.06,,2013-04-14 17:02:00,
2013-04-14 13:32:00,44.0,29.0,29.88,ENE,73,1.0,1.0,56,0.06,,,0.09,,2013-04-14 17:32:00,
2013-04-14 13:52:00,46.0,30.0,29.87,ENE,73,1.0,3.0,54,0.06,,,0.10,,2013-04-14 17:52:00,
2013-04-14 14:02:00,48.0,25.0,29.87,NNW,333,3.0,3.0,40,0.05,,,0.11,,2013-04-14 18:02:00,
2013-04-14 14:32:00,49.0,25.0,29.87,WNW,285,8.0,12.0,38,0.02,,,0.11,,2013-04-14 18:32:00,
2013-04-14 14:52:00,47.0,25.0,29.88,SW,232,6.0,12.0,41,0.01,,,0.11,,2013-04-14 18:52:00,
2013-04-14 15:02:00,45.0,20.0,29.88,West,279,10.0,14.0,37,0.00,,,0.11,,2013-04-14 19:02:00,
2013-04-14 15:11:00,45.0,20.0,29.88,West,279,10.0,14.0,37,0.00,,,0.11,,2013-04-14 19:11:00,
2013-04-14 15:22:00,44.0,22.0,29.87,NW,324,3.0,12.0,42,0.00,,,0.11,,2013-04-14 19:22:00,
2013-04-14 15:32:00,43.0,20.0,29.87,South,187,3.0,6.0,39,0.00,,,0.11,,2013-04-14 19:32:00,
2013-04-14 15:42:00,43.0,20.0,29.87,South,187,3.0,6.0,39,0.00,,,0.11,,2013-04-14 19:42:00,
2013-04-14 15:52:00,46.0,19.0,29.87,SSW,211,5.0,7.0,34,0.00,,,0.11,,2013-04-14 19:52:00,
2013-04-14 16:02:00,47.0,19.0,29.87,West,277,6.0,13.0,32,0.00,,,0.11,,2013-04-14 20:02:00,
2013-04-14 16:11:00,47.0,19.0,29.87,West,277,6.0,13.0,32,0.00,,,0.11,,2013-04-14 20:11:00,
2013-04-14 16:32:00,50.0,16.0,29.87,West,274,9.0,14.0,26,0.00,,,0.11,,2013-04-14 20:32:00,
2013-04-14 16:52:00,51.0,18.0,29.87,WSW,252,5.0,10.0,27,0.00,,,0.11,,2013-04-14 20:52:00,
2013-04-14 17:02:00,48.0,16.0,29.88,SSW,195,6.0,8.0,27,0.00,,,0.11,,2013-04-14 21:02:00,
2013-04-14 17:12:00,48.0,16.0,29.88,SSW,195,6.0,8.0,27,0.00,,,0.11,,2013-04-14 21:12:00,
2013-04-14 17:22:00,50.0,15.0,29.87,West,270,13.0,18.0,24,0.00,,,0.11,,2013-04-14 21:22:00,
2013-04-14 17:32:00,48.0,13.0,29.87,NW,304,10.0,13.0,24,0.00,,,0.11,,2013-04-14 21:32:00,
2013-04-14 17:42:00,48.0,13.0,29.87,NW,304,10.0,13.0,24,0.00,,,0.11,,2013-04-14 21:42:00,
2013-04-14 17:52:00,50.0,15.0,29.86,West,279,8.0,13.0,24,0.00,,,0.11,,2013-04-14 21:52:00,
2013-04-14 18:02:00,54.0,16.0,29.86,WSW,258,8.0,17.0,22,0.00,,,0.11,,2013-04-14 22:02:00,
2013-04-14 18:32:00,52.0,16.0,29.86,NE,55,5.0,6.0,24,0.00,,,0.11,,2013-04-14 22:32:00,
2013-04-14 18:42:00,52.0,16.0,29.86,NE,55,5.0,6.0,24,0.00,,,0.11,,2013-04-14 22:42:00,
2013-04-14 18:52:00,49.0,16.0,29.86,NW,318,9.0,14.0,27,0.00,,,0.11,,2013-04-14 22:52:00,
2013-04-14 19:02:00,50.0,17.0,29.86,WSW,238,10.0,14.0,27,0.00,,,0.11,,2013-04-14 23:02:00,
2013-04-14 19:12:00,53.0,17.0,29.86,South,180,7.0,12.0,24,0.00,,,0.11,,2013-04-14 23:12:00,
2013-04-14 19:22:00,53.0,17.0,29.86,South,180,7.0,12.0,24,0.00,,,0.11,,2013-04-14 23:22:00,
2013-04-14 19:32:00,50.0,17.0,29.86,WNW,285,7.0,10.0,27,0.00,,,0.11,,2013-04-14 23:32:00,
2013-04-14 19:42:00,50.0,17.0,29.86,WNW,285,7.0,10.0,27,0.00,,,0.11,,2013-04-14 23:42:00,
2013-04-14 19:52:00,47.0,16.0,29.86,NW,308,8.0,12.0,28,0.00,,,0.11,,2013-04-14 23:52:00,
2013-04-14 20:01:00,49.0,17.0,29.86,ESE,102,2.0,6.0,28,0.00,,,0.11,,2013-04-15 00:01:00,
2013-04-14 20:11:00,49.0,17.0,29.86,ESE,102,2.0,6.0,28,0.00,,,0.11,,2013-04-15 00:11:00,
2013-04-14 20:22:00,57.0,22.0,29.85,ESE,112,1.0,3.0,25,0.00,,,0.11,,2013-04-15 00:22:00,
2013-04-14 20:32:00,55.0,20.0,29.86,WNW,284,1.0,2.0,25,0.00,,,0.11,,2013-04-15 00:32:00,
2013-04-14 20:41:00,56.0,22.0,29.85,South,169,0.0,0.0,26,0.00,,,0.11,,2013-04-15 00:41:00,
2013-04-14 21:02:00,58.0,21.0,29.85,South,170,3.0,3.0,24,0.00,,,0.11,,2013-04-15 01:02:00,
2013-04-14 21:22:00,52.0,20.0,29.85,SW,221,0.0,0.0,28,0.00,,,0.11,,2013-04-15 01:22:00,
2013-04-14 21:32:00,46.0,19.0,29.85,ESE,116,3.0,3.0,33,0.00,,,0.11,,2013-04-15 01:32:00,
2013-04-14 21:42:00,46.0,19.0,29.85,ESE,116,3.0,3.0,33,0.00,,,0.11,,2013-04-15 01:42:00,
2013-04-14 21:52:00,45.0,21.0,29.85,East,92,0.0,1.0,38,0.00,,,0.11,,2013-04-15 01:52:00,
2013-04-14 22:02:00,42.0,19.0,29.85,ESE,102,1.0,5.0,39,0.00,,,0.11,,2013-04-15 02:02:00,
2013-04-14 22:11:00,42.0,19.0,29.85,ESE,102,1.0,5.0,39,0.00,,,0.11,,2013-04-15 02:11:00,
2013-04-14 22:21:00,41.0,17.0,29.85,WNW,296,2.0,3.0,37,0.00,,,0.11,,2013-04-15 02:21:00,
2013-04-14 22:32:00,39.0,16.0,29.85,WNW,296,1.0,1.0,38,0.00,,,0.11,,2013-04-15 02:32:00,
2013-04-14 22:41:00,39.0,16.0,29.85,WNW,296,1.0,1.0,38,0.00,,,0.11,,2013-04-15 02:41:00,
2013-04-14 22:52:00,39.0,17.0,29.85,NNW,347,2.0,3.0,40,0.00,,,0.11,,2013-04-15 02:52:00,
2013-04-14 23:02:00,38.0,17.0,29.86,NNW,344,2.0,3.0,42,0.00,,,0.11,,2013-04-15 03:02:00,
2013-04-14 23:11:00,38.0,17.0,29.86,NNW,344,2.0,3.0,42,0.00,,,0.11,,2013-04-15 03:11:00,
2013-04-14 23:21:00,38.0,16.0,29.86,NNW,342,2.0,3.0,40,0.00,,,0.11,,2013-04-15 03:21:00,
2013-04-14 23:32:00,39.0,16.0,29.85,NNW,328,3.0,3.0,38,0.00,,,0.11,,2013-04-15 03:32:00,
2013-04-14 23:42:00,39.0,16.0,29.85,NNW,328,3.0,3.0,38,0.00,,,0.11,,2013-04-15 03:42:00,
2013-04-14 23:53:00,38.0,17.0,29.85,NNW,337,2.0,3.0,42,0.00,,,0.11,,2013-04-15 03:53:00,